573  
ASUS43 KTOP 241908  
RWRKS  
 
WEATHER ROUNDUP FOR KANSAS  
NATIONAL WEATHER SERVICE GOODLAND KS  
100 PM CST TUE JAN 24 2017  
 
NOTE: "FAIR" INDICATES FEW OR NO CLOUDS BELOW 12,000 FEET WITH NO  
SIGNIFICANT WEATHER AND/OR S TO VISIBILITY
.  
 
KSZ001>006-013>018-027>032-041>047-242000-  
NORTHWEST KANSAS  
 
CITY SKY/WX TMP DP RH WIND PRES REMARKS
 
GOODLAND CLOUDY 31 29 92 N25G36 29.47F WCI 17  
HAYS CLOUDY 36 32 85 NW17 29.45S WCI 26  
HILL CITY CLOUDY 35 33 92 N16 29.47F FOG WCI 25  
RUSSELL SUNNY 46 34 62 W16 29.40F  

 
 
KSZ061>065-074>080-084>089-242000-  
SOUTHWEST KANSAS  
 
CITY SKY/WX TMP DP RH WIND PRES REMARKS
 
DODGE CITY CLOUDY 37 32 82 NW17 29.49S WCI 27  
ELKHART N/A 53 29 39 N12 N/A  
GARDEN CITY CLOUDY 36 30 79 N21G26 29.49S WCI 25  
GREAT BEND MOSUNNY 41 34 76 W26 29.42S  
LIBERAL N/A 54 32 43 N15 29.48F  
PRATT SUNNY 58 35 42 W16G24 29.42S  

 
 
KSZ066>073-081>083-090>101-242000-  
SOUTHEAST KANSAS  
 
CITY SKY/WX TMP DP RH WIND PRES REMARKS
 
CHANUTE SUNNY 63 39 41 S22G36 29.47F  
COFFEYVILLE SUNNY 66 39 37 S17G26 29.48F  
HUTCHINSON SUNNY 63 38 39 SW14 29.39F  
MEDICINE LODGE N/A 63 36 36 SW16G25 29.40F  
NEWTON SUNNY 59 40 49 SW22 29.39F  
PARSONS SUNNY 65 39 38 S20G28 29.48F  
WICHITA INTL MOSUNNY 63 41 44 S16G24 29.40F  
WICHITA JABRA SUNNY 62 41 46 SW21G29 29.40F  
WICHITA MCCONL SUNNY 63 39 41 SW23 29.40F  
WINFIELD SUNNY 67 40 37 SW20G33 29.43F  

 
 
KSZ007>012-019>026-033>040-048>060-102>105-242000-  
NORTHEAST KANSAS  
 
CITY SKY/WX TMP DP RH WIND PRES REMARKS
 
CONCORDIA SUNNY 46 36 68 E13 29.40F  
EMPORIA CLOUDY 59 37 44 S18 29.40F  
LAWRENCE MOSUNNY 46 37 71 E18 29.51F  
MANHATTAN SUNNY 52 37 56 SE12 29.43F  
MARYSVILLE CLOUDY 37 34 87 E15 29.47F WCI 28  
OLATHE IND CLOUDY 45 37 73 E12G22 29.51F  
OLATHE EXE CLOUDY 44 36 73 E14 29.51F  
TOPEKA BILLARD MOSUNNY 49 36 61 E20 29.48F  
TOPEKA FORBES MOSUNNY 49 37 63 SE17G25 29.46F  

 
 
 
CLICK HERE TO GO TO PREVIOUS BULLETINS.

The Nexlab KS Page Main Text Page